Regional Weather Roundup
Issued by NWS

Home | Current Version | Previous Version | Graphics & Text | Print | Product List | Glossary On
Versions: 1 2 3 4 5 6 7 8 9 10 11 12 13 14 15 16 17 18 19 20 21 22 23 24 25 26 27 28 29 30 31 32 33 34 35 36 37 38 39 40 41 42 43 44 45 46 47 48 49 50
631
ASUS43 KLSX 260359
RWRMO

WEATHER SUMMARY FOR MISSOURI
NATIONAL WEATHER SERVICE SPRINGFIELD MO
1100 PM CDT SUN JUN 25 2017

NOTE: "FAIR" INDICATES FEW OR NO CLOUDS BELOW 12,000 FEET WITH NO
       SIGNIFICANT WEATHER AND/OR OBSTRUCTIONS TO VISIBILITY.
       CURRENT SKY AND/OR WEATHER CONDITIONS ARE NOT AVAILABLE FOR
       CHILLICOTHE AND FARMINGTON.

MOZ001>031-035>038-043-044-053-054-260500-
...NORTHERN AND WESTERN MISSOURI...

CITY           SKY/WX    TMP DP  RH WIND       PRES   REMARKS
KANSAS CTY INT CLEAR     55  51  86 SW5       30.24R
KANSAS C DTWN  CLEAR     61  52  72 CALM      30.23S
LEE`S SUMMIT   CLEAR     61  50  67 W5        30.24S
ST JOSEPH      CLEAR     56  52  86 CALM      30.24R
CHILLICOTHE      N/A     58  52  80 CALM      30.23S
KIRKSVILLE     CLEAR     55  50  83 NW3       30.21S

$$
MOZ066>068-077>081-088>096-101>105-260500-
...SOUTHWEST MISSOURI...

CITY           SKY/WX    TMP DP  RH WIND       PRES   REMARKS
SPRINGFIELD    CLOUDY    69  55  60 NE5       30.23R
JOPLIN         CLOUDY    69  55  60 E3        30.23S
BRANSON        CLOUDY    72  57  60 CALM      30.24R

$$
MOZ032>034-039>042-045>050-055>058-069>072-260500-
...CENTRAL MISSOURI...

CITY           SKY/WX    TMP DP  RH WIND       PRES   REMARKS
COLUMBIA       CLEAR     63  51  65 W6        30.22R
JEFFERSON CITY CLEAR     67  49  52 NW5       30.21R
ROLLA          CLOUDY    67  49  52 NW7       30.22R
SEDALIA        CLEAR     59  54  83 NW5       30.23S
WHITEMAN AFB   CLEAR     61  54  77 W3        30.22S HAZE
WARRENSBURG    CLEAR     55  50  82 W3        30.23R
OSAGE BEACH    CLOUDY    66  50  56 CALM      30.23S

$$
MOZ051-052-059>065-260500-
...EAST CENTRAL MISSOURI...

CITY           SKY/WX    TMP DP  RH WIND       PRES   REMARKS
ST LOUIS INTL  PTCLDY    70  47  43 NW3       30.19S
SPIRIT OF STL  PTCLDY    62  54  74 CALM      30.18R
ST CHARLES     CLEAR     65  48  54 N3        30.18R

$$
MOZ072>076-082>087-097>100-106>115-260500-
...SOUTH CENTRAL AND SOUTHEAST MISSOURI...

CITY           SKY/WX    TMP DP  RH WIND       PRES   REMARKS
CAPE GIRARDEAU CLEAR     67  60  78 CALM      30.17R
FARMINGTON     CLOUDY    68  54  60 CALM      30.21R
POPLAR BLUFF   CLEAR     69  65  86 CALM      30.18R
WEST PLAINS    CLEAR     68  54  60 N3        30.23S

$$




USA.gov is the U.S. government's official web portal to all federal, state and local government web resources and services.